Time,TemperatureF,DewpointF,PressureIn,WindDirection,WindDirectionDegrees,WindSpeedMPH,WindSpeedGustMPH,Humidity,HourlyPrecipIn,Conditions,Clouds,dailyrainin,SoftwareType,DateUTC
2013-03-07 00:01:00,34.6,24.4,29.95,NNW,337,3.0,10.0,66,0.00,,,-99.99,WeatherLink 5.7,2013-03-07 05:01:00,
2013-03-07 00:11:00,34.5,24.3,29.94,ENE,67,2.0,12.0,66,0.00,,,-99.99,WeatherLink 5.7,2013-03-07 05:11:00,
2013-03-07 00:21:00,34.4,24.2,29.94,North,0,2.0,9.0,66,0.00,,,-99.99,WeatherLink 5.7,2013-03-07 05:21:00,
2013-03-07 00:31:00,34.4,24.2,29.94,ENE,67,3.0,10.0,66,0.00,,,-99.99,WeatherLink 5.7,2013-03-07 05:31:00,
2013-03-07 00:41:00,34.2,24.0,29.94,North,0,2.0,8.0,66,0.00,,,-99.99,WeatherLink 5.7,2013-03-07 05:41:00,
2013-03-07 00:51:00,34.0,23.8,29.94,North,0,3.0,10.0,66,0.00,,,-99.99,WeatherLink 5.7,2013-03-07 05:51:00,
2013-03-07 01:01:00,33.8,24.0,29.94,North,0,2.0,6.0,67,0.00,,,-99.99,WeatherLink 5.7,2013-03-07 06:01:00,
2013-03-07 01:11:00,33.6,23.8,29.94,North,0,2.0,7.0,67,0.00,,,-99.99,WeatherLink 5.7,2013-03-07 06:11:00,
2013-03-07 01:21:00,33.5,23.7,29.94,NW,315,2.0,7.0,67,0.00,,,-99.99,WeatherLink 5.7,2013-03-07 06:21:00,
2013-03-07 01:31:00,33.5,23.7,29.94,North,0,3.0,12.0,67,0.00,,,-99.99,WeatherLink 5.7,2013-03-07 06:31:00,
2013-03-07 01:41:00,33.5,23.7,29.94,NE,45,3.0,8.0,67,0.00,,,-99.99,WeatherLink 5.7,2013-03-07 06:41:00,
2013-03-07 01:51:00,33.6,23.8,29.93,North,0,3.0,10.0,67,0.00,,,-99.99,WeatherLink 5.7,2013-03-07 06:51:00,
2013-03-07 02:01:00,33.5,23.7,29.94,North,0,2.0,8.0,67,0.00,,,-99.99,WeatherLink 5.7,2013-03-07 07:01:00,
2013-03-07 02:11:00,33.5,23.7,29.94,NNW,337,3.0,8.0,67,0.00,,,-99.99,WeatherLink 5.7,2013-03-07 07:11:00,
2013-03-07 02:21:00,33.5,23.4,29.93,North,0,3.0,11.0,66,0.00,,,-99.99,WeatherLink 5.7,2013-03-07 07:21:00,
2013-03-07 02:31:00,33.6,23.8,29.94,North,0,3.0,9.0,67,0.00,,,-99.99,WeatherLink 5.7,2013-03-07 07:31:00,
2013-03-07 02:41:00,33.5,23.7,29.93,NW,315,3.0,8.0,67,0.00,,,-99.99,WeatherLink 5.7,2013-03-07 07:41:00,
2013-03-07 02:51:00,33.5,23.7,29.94,NW,315,4.0,10.0,67,0.00,,,-99.99,WeatherLink 5.7,2013-03-07 07:51:00,
2013-03-07 03:01:00,33.4,23.6,29.94,NW,315,3.0,9.0,67,0.00,,,-99.99,WeatherLink 5.7,2013-03-07 08:01:00,
2013-03-07 03:11:00,33.3,23.5,29.94,NW,315,4.0,9.0,67,0.00,,,-99.99,WeatherLink 5.7,2013-03-07 08:11:00,
2013-03-07 03:21:00,33.3,23.5,29.93,NW,315,3.0,11.0,67,0.00,,,-99.99,WeatherLink 5.7,2013-03-07 08:21:00,
2013-03-07 03:31:00,33.2,23.8,29.94,NW,315,3.0,8.0,68,0.00,,,-99.99,WeatherLink 5.7,2013-03-07 08:31:00,
2013-03-07 03:41:00,33.1,23.7,29.94,North,0,2.0,13.0,68,0.00,,,-99.99,WeatherLink 5.7,2013-03-07 08:41:00,
2013-03-07 03:51:00,33.2,23.8,29.95,NW,315,4.0,9.0,68,0.00,,,-99.99,WeatherLink 5.7,2013-03-07 08:51:00,
2013-03-07 04:01:00,33.3,23.5,29.95,NW,315,4.0,12.0,67,0.00,,,-99.99,WeatherLink 5.7,2013-03-07 09:01:00,
2013-03-07 04:11:00,33.4,23.6,29.94,NW,315,4.0,15.0,67,0.00,,,-99.99,WeatherLink 5.7,2013-03-07 09:11:00,
2013-03-07 04:21:00,33.3,23.5,29.96,North,0,3.0,13.0,67,0.00,,,-99.99,WeatherLink 5.7,2013-03-07 09:21:00,
2013-03-07 04:31:00,33.3,23.2,29.95,WNW,292,4.0,13.0,66,0.00,,,-99.99,WeatherLink 5.7,2013-03-07 09:31:00,
2013-03-07 04:41:00,33.4,23.3,29.96,WNW,292,4.0,11.0,66,0.00,,,-99.99,WeatherLink 5.7,2013-03-07 09:41:00,
2013-03-07 04:51:00,33.4,23.3,29.96,NW,315,4.0,13.0,66,0.00,,,-99.99,WeatherLink 5.7,2013-03-07 09:51:00,
2013-03-07 05:01:00,33.4,23.3,29.97,NW,315,3.0,9.0,66,0.00,,,-99.99,WeatherLink 5.7,2013-03-07 10:01:00,
2013-03-07 05:11:00,33.4,22.9,29.97,NNW,337,4.0,10.0,65,0.00,,,-99.99,WeatherLink 5.7,2013-03-07 10:11:00,
2013-03-07 05:21:00,33.4,22.9,29.97,NNW,337,3.0,10.0,65,0.00,,,-99.99,WeatherLink 5.7,2013-03-07 10:21:00,
2013-03-07 05:31:00,33.4,22.9,29.97,NW,315,4.0,11.0,65,0.00,,,-99.99,WeatherLink 5.7,2013-03-07 10:31:00,
2013-03-07 05:41:00,33.4,22.5,29.97,NNW,337,4.0,12.0,64,0.00,,,-99.99,WeatherLink 5.7,2013-03-07 10:41:00,
2013-03-07 05:51:00,33.3,22.8,29.97,NW,315,3.0,11.0,65,0.00,,,-99.99,WeatherLink 5.7,2013-03-07 10:51:00,
2013-03-07 06:01:00,33.2,22.7,29.98,NNW,337,4.0,10.0,65,0.00,,,-99.99,WeatherLink 5.7,2013-03-07 11:01:00,
2013-03-07 06:11:00,33.3,22.8,29.98,NNW,337,4.0,12.0,65,0.00,,,-99.99,WeatherLink 5.7,2013-03-07 11:11:00,
2013-03-07 06:21:00,33.2,22.7,29.98,NW,315,4.0,7.0,65,0.00,,,-99.99,WeatherLink 5.7,2013-03-07 11:21:00,
2013-03-07 06:31:00,33.0,22.5,29.98,NW,315,2.0,8.0,65,0.00,,,-99.99,WeatherLink 5.7,2013-03-07 11:31:00,
2013-03-07 06:41:00,32.9,22.4,29.98,NW,315,4.0,13.0,65,0.00,,,-99.99,WeatherLink 5.7,2013-03-07 11:41:00,
2013-03-07 06:51:00,32.9,22.4,29.99,NE,45,3.0,12.0,65,0.00,,,-99.99,WeatherLink 5.7,2013-03-07 11:51:00,
2013-03-07 07:01:00,32.9,22.4,30.00,NNW,337,3.0,8.0,65,0.00,,,-99.99,WeatherLink 5.7,2013-03-07 12:01:00,
2013-03-07 07:11:00,32.9,22.4,30.00,North,0,2.0,8.0,65,0.00,,,-99.99,WeatherLink 5.7,2013-03-07 12:11:00,
2013-03-07 07:21:00,33.2,22.3,30.00,NW,315,3.0,9.0,64,0.00,,,-99.99,WeatherLink 5.7,2013-03-07 12:21:00,
2013-03-07 07:31:00,33.5,22.6,30.02,WNW,292,3.0,12.0,64,0.00,,,-99.99,WeatherLink 5.7,2013-03-07 12:31:00,
2013-03-07 07:41:00,33.7,22.4,30.01,WNW,292,4.0,10.0,63,0.00,,,-99.99,WeatherLink 5.7,2013-03-07 12:41:00,
2013-03-07 07:51:00,34.1,22.4,30.01,West,270,3.0,11.0,62,0.00,,,-99.99,WeatherLink 5.7,2013-03-07 12:51:00,
2013-03-07 08:01:00,34.7,22.6,30.02,NNW,337,3.0,9.0,61,0.00,,,-99.99,WeatherLink 5.7,2013-03-07 13:01:00,
2013-03-07 08:11:00,34.9,22.4,30.02,NW,315,4.0,14.0,60,0.00,,,-99.99,WeatherLink 5.7,2013-03-07 13:11:00,
2013-03-07 08:21:00,35.3,22.4,30.02,WNW,292,4.0,11.0,59,0.00,,,-99.99,WeatherLink 5.7,2013-03-07 13:21:00,
2013-03-07 08:31:00,35.9,22.5,30.01,NW,315,3.0,8.0,58,0.00,,,-99.99,WeatherLink 5.7,2013-03-07 13:31:00,
2013-03-07 08:41:00,36.3,22.9,30.02,NW,315,3.0,14.0,58,0.00,,,-99.99,WeatherLink 5.7,2013-03-07 13:41:00,
2013-03-07 08:51:00,36.8,23.0,30.03,North,0,5.0,12.0,57,0.00,,,-99.99,WeatherLink 5.7,2013-03-07 13:51:00,
2013-03-07 09:01:00,37.4,23.5,30.02,NW,315,4.0,11.0,57,0.00,,,-99.99,WeatherLink 5.7,2013-03-07 14:01:00,
2013-03-07 09:11:00,37.2,23.4,30.02,NNW,337,3.0,10.0,57,0.00,,,-99.99,WeatherLink 5.7,2013-03-07 14:11:00,
2013-03-07 09:21:00,36.8,23.4,30.02,NW,315,3.0,10.0,58,0.00,,,-99.99,WeatherLink 5.7,2013-03-07 14:21:00,
2013-03-07 09:31:00,37.4,23.5,30.02,North,0,4.0,12.0,57,0.00,,,-99.99,WeatherLink 5.7,2013-03-07 14:31:00,
2013-03-07 09:41:00,37.4,23.5,30.02,NNW,337,3.0,8.0,57,0.00,,,-99.99,WeatherLink 5.7,2013-03-07 14:41:00,
2013-03-07 09:51:00,37.5,23.6,30.03,NW,315,3.0,7.0,57,0.00,,,-99.99,WeatherLink 5.7,2013-03-07 14:51:00,
2013-03-07 10:01:00,38.0,24.1,30.03,North,0,3.0,9.0,57,0.00,,,-99.99,WeatherLink 5.7,2013-03-07 15:01:00,
2013-03-07 10:11:00,38.8,24.0,30.03,NW,315,4.0,11.0,55,0.00,,,-99.99,WeatherLink 5.7,2013-03-07 15:11:00,
2013-03-07 10:21:00,39.0,24.2,30.03,NW,315,4.0,11.0,55,0.00,,,-99.99,WeatherLink 5.7,2013-03-07 15:21:00,
2013-03-07 10:31:00,39.2,24.4,30.03,North,0,2.0,7.0,55,0.00,,,-99.99,WeatherLink 5.7,2013-03-07 15:31:00,
2013-03-07 10:41:00,40.3,24.5,30.03,North,0,3.0,10.0,53,0.00,,,-99.99,WeatherLink 5.7,2013-03-07 15:41:00,
2013-03-07 10:51:00,40.3,24.5,30.03,NW,315,4.0,10.0,53,0.00,,,-99.99,WeatherLink 5.7,2013-03-07 15:51:00,
2013-03-07 11:01:00,40.1,24.3,30.03,NW,315,5.0,13.0,53,0.00,,,-99.99,WeatherLink 5.7,2013-03-07 16:01:00,
2013-03-07 11:11:00,39.8,24.5,30.03,NW,315,5.0,12.0,54,0.00,,,-99.99,WeatherLink 5.7,2013-03-07 16:11:00,
2013-03-07 11:21:00,39.7,24.8,30.03,NW,315,5.0,12.0,55,0.00,,,-99.99,WeatherLink 5.7,2013-03-07 16:21:00,
2013-03-07 11:31:00,40.4,25.5,30.02,NW,315,4.0,10.0,55,0.00,,,-99.99,WeatherLink 5.7,2013-03-07 16:31:00,
2013-03-07 11:41:00,41.1,25.7,30.02,NW,315,5.0,13.0,54,0.00,,,-99.99,WeatherLink 5.7,2013-03-07 16:41:00,
2013-03-07 11:51:00,41.2,25.3,30.02,NW,315,4.0,8.0,53,0.00,,,-99.99,WeatherLink 5.7,2013-03-07 16:51:00,
2013-03-07 12:01:00,41.8,25.9,30.02,NW,315,4.0,10.0,53,0.00,,,-99.99,WeatherLink 5.7,2013-03-07 17:01:00,
2013-03-07 12:11:00,42.4,26.5,30.02,NW,315,4.0,15.0,53,0.00,,,-99.99,WeatherLink 5.7,2013-03-07 17:11:00,
2013-03-07 12:21:00,42.4,26.5,30.02,NW,315,4.0,8.0,53,0.00,,,-99.99,WeatherLink 5.7,2013-03-07 17:21:00,
2013-03-07 12:31:00,42.3,26.4,30.02,NNW,337,4.0,9.0,53,0.00,,,-99.99,WeatherLink 5.7,2013-03-07 17:31:00,
2013-03-07 12:41:00,42.5,26.6,30.02,NNW,337,5.0,10.0,53,0.00,,,-99.99,WeatherLink 5.7,2013-03-07 17:41:00,
2013-03-07 12:51:00,42.4,26.5,30.02,NW,315,3.0,8.0,53,0.00,,,-99.99,WeatherLink 5.7,2013-03-07 17:51:00,
2013-03-07 13:01:00,42.6,27.1,30.03,NW,315,5.0,10.0,54,0.00,,,-99.99,WeatherLink 5.7,2013-03-07 18:01:00,
2013-03-07 13:11:00,41.8,27.2,30.02,North,0,4.0,9.0,56,0.00,,,-99.99,WeatherLink 5.7,2013-03-07 18:11:00,
2013-03-07 13:21:00,42.1,27.1,30.01,NW,315,5.0,10.0,55,0.00,,,-99.99,WeatherLink 5.7,2013-03-07 18:21:00,
2013-03-07 13:31:00,41.4,26.9,30.02,NW,315,5.0,11.0,56,0.00,,,-99.99,WeatherLink 5.7,2013-03-07 18:31:00,
2013-03-07 13:41:00,41.6,26.6,30.01,NNW,337,5.0,11.0,55,0.00,,,-99.99,WeatherLink 5.7,2013-03-07 18:41:00,
2013-03-07 13:51:00,41.7,26.3,30.00,NW,315,4.0,8.0,54,0.00,,,-99.99,WeatherLink 5.7,2013-03-07 18:51:00,
2013-03-07 14:01:00,41.8,27.2,30.01,NW,315,4.0,10.0,56,0.00,,,-99.99,WeatherLink 5.7,2013-03-07 19:01:00,
2013-03-07 14:11:00,42.1,27.5,30.01,North,0,4.0,11.0,56,0.00,,,-99.99,WeatherLink 5.7,2013-03-07 19:11:00,
2013-03-07 14:21:00,41.7,28.0,30.01,NW,315,5.0,12.0,58,0.00,,,-99.99,WeatherLink 5.7,2013-03-07 19:21:00,
2013-03-07 14:31:00,41.0,28.2,30.02,NNW,337,5.0,9.0,60,0.00,,,-99.99,WeatherLink 5.7,2013-03-07 19:31:00,
2013-03-07 14:41:00,41.0,28.2,30.01,NW,315,5.0,11.0,60,0.00,,,-99.99,WeatherLink 5.7,2013-03-07 19:41:00,
2013-03-07 14:51:00,40.5,28.5,30.03,NW,315,5.0,10.0,62,0.00,,,-99.99,WeatherLink 5.7,2013-03-07 19:51:00,
2013-03-07 15:01:00,40.4,29.2,30.02,NW,315,4.0,9.0,64,0.00,,,-99.99,WeatherLink 5.7,2013-03-07 20:01:00,
2013-03-07 15:11:00,40.2,29.7,30.03,North,0,3.0,8.0,66,0.00,,,-99.99,WeatherLink 5.7,2013-03-07 20:11:00,
2013-03-07 15:21:00,40.4,29.9,30.03,North,0,3.0,9.0,66,0.00,,,-99.99,WeatherLink 5.7,2013-03-07 20:21:00,
2013-03-07 15:31:00,40.1,31.1,30.03,North,0,2.0,5.0,70,0.00,,,-99.99,WeatherLink 5.7,2013-03-07 20:31:00,
2013-03-07 15:41:00,39.4,31.1,30.04,NW,315,3.0,8.0,72,0.00,,,-99.99,WeatherLink 5.7,2013-03-07 20:41:00,
2013-03-07 15:51:00,38.9,31.3,30.05,NNW,337,3.0,6.0,74,0.00,,,-99.99,WeatherLink 5.7,2013-03-07 20:51:00,
2013-03-07 16:01:00,38.6,31.4,30.05,NNW,337,2.0,5.0,75,0.00,,,-99.99,WeatherLink 5.7,2013-03-07 21:01:00,
2013-03-07 16:11:00,37.8,31.2,30.05,North,0,2.0,7.0,77,0.00,,,-99.99,WeatherLink 5.7,2013-03-07 21:11:00,
2013-03-07 16:21:00,37.2,31.3,30.05,NW,315,2.0,5.0,79,0.00,,,-99.99,WeatherLink 5.7,2013-03-07 21:21:00,
2013-03-07 16:31:00,37.0,31.4,30.06,North,0,2.0,5.0,80,0.00,,,-99.99,WeatherLink 5.7,2013-03-07 21:31:00,
2013-03-07 16:41:00,37.0,31.1,30.06,NW,315,3.0,8.0,79,0.00,,,-99.99,WeatherLink 5.7,2013-03-07 21:41:00,
2013-03-07 16:51:00,36.6,30.7,30.06,NW,315,4.0,10.0,79,0.00,,,-99.99,WeatherLink 5.7,2013-03-07 21:51:00,
2013-03-07 17:01:00,36.3,30.4,30.07,NW,315,3.0,8.0,79,0.00,,,-99.99,WeatherLink 5.7,2013-03-07 22:01:00,
2013-03-07 17:11:00,36.0,30.1,30.06,NW,315,4.0,10.0,79,0.01,,,-99.99,WeatherLink 5.7,2013-03-07 22:11:00,
2013-03-07 17:21:00,35.7,29.8,30.06,NW,315,4.0,9.0,79,0.01,,,-99.99,WeatherLink 5.7,2013-03-07 22:21:00,
2013-03-07 17:31:00,35.5,29.6,30.06,NW,315,3.0,7.0,79,0.01,,,-99.99,WeatherLink 5.7,2013-03-07 22:31:00,
2013-03-07 17:41:00,35.2,29.3,30.07,NW,315,4.0,8.0,79,0.01,,,-99.99,WeatherLink 5.7,2013-03-07 22:41:00,
2013-03-07 17:51:00,34.9,29.0,30.07,NW,315,4.0,10.0,79,0.01,,,-99.99,WeatherLink 5.7,2013-03-07 22:51:00,
2013-03-07 18:01:00,34.6,28.8,30.07,NNW,337,4.0,12.0,79,0.01,,,-99.99,WeatherLink 5.7,2013-03-07 23:01:00,
2013-03-07 18:11:00,34.4,28.6,30.08,NW,315,5.0,12.0,79,0.00,,,-99.99,WeatherLink 5.7,2013-03-07 23:11:00,
2013-03-07 18:21:00,34.2,28.7,30.07,NW,315,4.0,9.0,80,0.00,,,-99.99,WeatherLink 5.7,2013-03-07 23:21:00,
2013-03-07 18:31:00,33.9,28.7,30.08,NW,315,4.0,9.0,81,0.00,,,-99.99,WeatherLink 5.7,2013-03-07 23:31:00,
2013-03-07 18:41:00,33.8,28.6,30.08,NW,315,3.0,8.0,81,0.00,,,-99.99,WeatherLink 5.7,2013-03-07 23:41:00,
2013-03-07 18:51:00,33.7,28.5,30.08,NW,315,5.0,11.0,81,0.00,,,-99.99,WeatherLink 5.7,2013-03-07 23:51:00,
2013-03-07 19:01:00,33.6,28.7,30.08,NW,315,3.0,8.0,82,0.00,,,-99.99,WeatherLink 5.7,2013-03-08 00:01:00,
2013-03-07 19:11:00,33.4,28.5,30.07,NW,315,4.0,12.0,82,0.00,,,-99.99,WeatherLink 5.7,2013-03-08 00:11:00,
2013-03-07 19:21:00,33.3,28.4,30.08,NW,315,5.0,13.0,82,0.00,,,-99.99,WeatherLink 5.7,2013-03-08 00:21:00,
2013-03-07 19:31:00,33.2,28.6,30.08,NNW,337,3.0,10.0,83,0.00,,,-99.99,WeatherLink 5.7,2013-03-08 00:31:00,
2013-03-07 19:41:00,33.0,28.7,30.08,NW,315,3.0,12.0,84,0.00,,,-99.99,WeatherLink 5.7,2013-03-08 00:41:00,
2013-03-07 19:51:00,32.9,28.3,30.08,NW,315,4.0,9.0,83,0.00,,,-99.99,WeatherLink 5.7,2013-03-08 00:51:00,
2013-03-07 20:01:00,32.9,28.3,30.08,NW,315,4.0,8.0,83,0.00,,,-99.99,WeatherLink 5.7,2013-03-08 01:01:00,
2013-03-07 20:11:00,32.8,28.5,30.07,NW,315,3.0,8.0,84,0.00,,,-99.99,WeatherLink 5.7,2013-03-08 01:11:00,
2013-03-07 20:21:00,32.7,28.4,30.07,NW,315,3.0,7.0,84,0.00,,,-99.99,WeatherLink 5.7,2013-03-08 01:21:00,
2013-03-07 20:31:00,32.5,28.5,30.06,NW,315,3.0,8.0,85,0.00,,,-99.99,WeatherLink 5.7,2013-03-08 01:31:00,
2013-03-07 20:41:00,32.4,28.4,30.06,NW,315,4.0,11.0,85,0.00,,,-99.99,WeatherLink 5.7,2013-03-08 01:41:00,
2013-03-07 20:51:00,32.4,28.1,30.06,NW,315,3.0,9.0,84,0.00,,,-99.99,WeatherLink 5.7,2013-03-08 01:51:00,
2013-03-07 21:01:00,32.5,28.2,30.06,NNW,337,3.0,6.0,84,0.00,,,-99.99,WeatherLink 5.7,2013-03-08 02:01:00,
2013-03-07 21:11:00,32.5,28.2,30.07,NW,315,3.0,8.0,84,0.00,,,-99.99,WeatherLink 5.7,2013-03-08 02:11:00,
2013-03-07 21:21:00,32.5,27.9,30.07,NW,315,3.0,9.0,83,0.00,,,-99.99,WeatherLink 5.7,2013-03-08 02:21:00,
2013-03-07 21:31:00,32.5,27.6,30.06,NW,315,3.0,8.0,82,0.00,,,-99.99,WeatherLink 5.7,2013-03-08 02:31:00,
2013-03-07 21:41:00,32.5,27.3,30.07,NW,315,4.0,12.0,81,0.00,,,-99.99,WeatherLink 5.7,2013-03-08 02:41:00,
2013-03-07 21:51:00,32.5,27.3,30.06,NW,315,3.0,9.0,81,0.00,,,-99.99,WeatherLink 5.7,2013-03-08 02:51:00,
2013-03-07 22:01:00,32.4,27.2,30.06,NNW,337,4.0,8.0,81,0.00,,,-99.99,WeatherLink 5.7,2013-03-08 03:01:00,
2013-03-07 22:11:00,32.4,27.2,30.06,NW,315,3.0,7.0,81,0.00,,,-99.99,WeatherLink 5.7,2013-03-08 03:11:00,
2013-03-07 22:21:00,32.3,27.4,30.06,NW,315,3.0,7.0,82,0.00,,,-99.99,WeatherLink 5.7,2013-03-08 03:21:00,
2013-03-07 22:31:00,32.1,27.2,30.06,NW,315,4.0,8.0,82,0.00,,,-99.99,WeatherLink 5.7,2013-03-08 03:31:00,
2013-03-07 22:41:00,32.0,27.1,30.06,NW,315,3.0,6.0,82,0.00,,,-99.99,WeatherLink 5.7,2013-03-08 03:41:00,
2013-03-07 22:51:00,31.9,27.0,30.06,NW,315,3.0,7.0,82,0.00,,,-99.99,WeatherLink 5.7,2013-03-08 03:51:00,
2013-03-07 23:01:00,31.8,26.9,30.05,NW,315,3.0,8.0,82,0.00,,,-99.99,WeatherLink 5.7,2013-03-08 04:01:00,
2013-03-07 23:11:00,31.7,26.8,30.05,NW,315,4.0,11.0,82,0.00,,,-99.99,WeatherLink 5.7,2013-03-08 04:11:00,
2013-03-07 23:21:00,31.5,26.9,30.06,NW,315,4.0,8.0,83,0.01,,,-99.99,WeatherLink 5.7,2013-03-08 04:21:00,
2013-03-07 23:31:00,31.3,27.0,30.06,NW,315,4.0,8.0,84,0.01,,,-99.99,WeatherLink 5.7,2013-03-08 04:31:00,
2013-03-07 23:41:00,31.1,27.1,30.06,NW,315,3.0,9.0,85,0.01,,,-99.99,WeatherLink 5.7,2013-03-08 04:41:00,
2013-03-07 23:51:00,31.1,27.1,30.06,NW,315,2.0,4.0,85,0.01,,,-99.99,WeatherLink 5.7,2013-03-08 04:51:00,